This demonstration page uses our WeatherBlox Daily Observations layout. Learn more.

Left ArrowRight Arrow

41.12389, -100.76542

Hourly Observations for December 10, 2016

Temp ( °F °C ) Dew Point ( °F °C ) Humidity (%) Winds ( mph kmh ) Pressure ( in mb ) Visibility ( mi km ) Precip ( " mm )
12:53 am 00:53 Cloudy 17 -8.3 11 -11.7 77 77 ESE 12 19 30.36 1028 10 16 0.00 0.00
1:53 am 01:53 Cloudy 17 -8.3 11 -11.7 77 77 ESE 9 15 30.35 1028 10 16 0.00 0.00
2:53 am 02:53 Cloudy 18 -7.8 12 -11.1 77 77 E 8 13 30.33 1027 10 16 0.00 0.00
3:53 am 03:53 Cloudy 18 -7.8 12 -11.1 77 77 E 9 15 30.30 1026 10 16 0.00 0.00
4:53 am 04:53 Cloudy 18 -7.8 12 -11.1 77 77 ESE 7 11 30.28 1026 10 16 0.00 0.00
5:53 am 05:53 Cloudy 18 -7.8 12 -11.1 77 77 ESE 9 15 30.24 1024 10 16 0.00 0.00
6:53 am 06:53 Cloudy 19 -7.2 13 -10.6 77 77 ESE 8 13 30.25 1025 10 16 0.00 0.00
7:53 am 07:53 Partly Cloudy 18 -7.8 13 -10.6 81 81 SSE 7 11 30.22 1023 10 16 0.00 0.00
8:53 am 08:53 Sunny 19 -7.2 13 -10.6 77 77 ESE 13 20 30.18 1022 10 16 0.00 0.00
9:53 am 09:53 Mostly Sunny 21 -6.1 14 -10 74 74 SSE 8 13 30.18 1022 10 16 0.00 0.00
10:53 am 10:53 Cloudy 24 -4.4 15 -9.4 68 68 SSE 13 20 30.14 1021 10 16 0.00 0.00
11:50 am 11:50 Mostly Cloudy 25 -4 16 -9 69 69 SSE 12 19 30.12 1020 10 16 0.00 0.00
11:53 am 11:53 Mostly Cloudy 26 -3.3 16 -8.9 66 66 SSE 13 20 30.08 1019 10 16 0.00 0.00
12:00 pm 12:00 Mostly Cloudy 27 -3 16 -9 64 64 SSE 12 19 30.12 1020 10 16 0.00 0.00
12:53 pm 12:53 Mostly Cloudy 29 -1.7 18 -7.8 63 63 SSE 13 20 30.00 1016 10 16 0.00 0.00
1:50 pm 13:50 Mostly Sunny 30 -1 19 -7 64 64 SSE 12 19 29.97 1015 10 16 0.00 0.00
1:53 pm 13:53 Mostly Sunny 31 -0.6 20 -6.7 64 64 S 10 17 29.97 1015 10 16 0.00 0.00
2:53 pm 14:53 Mostly Sunny 30 -1.1 21 -6.1 69 69 SSW 10 17 29.96 1014 10 16 0.00 0.00
3:06 pm 15:06 Mostly Cloudy 28 -2 21 -6 74 74 S 10 17 29.97 1015 10 16 0.00 0.00
3:53 pm 15:53 Mostly Cloudy 29 -1.7 21 -6.1 72 72 S 12 19 29.92 1013 10 16 0.00 0.00
4:04 pm 16:04 Partly Cloudy 28 -2 21 -6 74 74 S 10 17 29.97 1015 10 16 0.00 0.00
4:14 pm 16:14 Mostly Cloudy 29 -1.7 21 -6.1 72 72 S 10 17 29.97 1015 10 16 0.00 0.00
4:28 pm 16:28 Mostly Cloudy 28 -2 21 -6 74 74 S 8 13 29.97 1015 10 16 0.00 0.00
4:53 pm 16:53 Mostly Cloudy 30 -1.1 22 -5.6 72 72 SSE 12 19 29.89 1012 10 16 0.00 0.00
5:53 pm 17:53 Mostly Cloudy 28 -2.2 21 -6.1 75 75 SSE 5 7 29.89 1012 10 16 0.00 0.00
6:53 pm 18:53 Mostly Cloudy 29 -1.7 21 -6.1 72 72 Calm 29.88 1012 10 16 0.00 0.00
7:53 pm 19:53 Cloudy 28 -2.2 22 -5.6 78 78 SE 5 7 29.86 1011 10 16 0.00 0.00
8:53 pm 20:53 Partly Cloudy 28 -2.2 22 -5.6 78 78 Calm 29.83 1010 10 16 0.00 0.00
9:53 pm 21:53 Clear 30 -1.1 23 -5 75 75 S 7 11 29.79 1009 10 16 0.00 0.00
10:53 pm 22:53 Clear 25 -3.9 21 -6.1 85 85 Calm 29.77 1008 10 16 0.00 0.00
11:53 pm 23:53 Clear 28 -2.2 23 -5 81 81 SSW 3 6 29.76 1008 10 16 0.00 0.00

Powered by AerisWeather